Miscellaneous Local Product
Issued by NWS Hastings, NE

Home | Current Version | Previous Version | Graphics & Text | Print | Product List | Glossary On
Versions: 1 2 3 4 5 6 7 8 9 10 11 12 13 14 15 16 17 18 19 20 21 22 23 24 25 26 27 28 29 30 31 32 33 34 35 36 37 38 39 40 41 42 43 44 45 46 47 48 49 50
000
AXUS43 KGID 292202
MISGRI

GID CWA HOURLY WEATHER ROUNDUP
NATIONAL WEATHER SERVICE HASTINGS NE
500 PM CDT TUE JUL 29 2014

NOTE: "FAIR" INDICATES FEW OR NO CLOUDS BELOW 12,000 FEET WITH NO
SIGNIFICANT WEATHER AND/OR OBSTRUCTIONS TO VISIBILITY.

...SOUTH CENTRAL NEBRASKA...

CITY           SKY/WX    TMP DP  RH WIND       PRES   REMARKS
GRAND ISLAND   PTSUNNY   78  58  49 MISG      30.17F
HASTINGS       MOSUNNY   78  55  44 E9        30.16F
KEARNEY        MOSUNNY   79  57  47 E10       30.17S
ORD            PTSUNNY   78  57  48 SE3       30.16F
YORK           MOSUNNY   77  57  50 E6        30.16F
AURORA         PTSUNNY   78  58  50 SE5       30.16F
LEXINGTON      MOSUNNY   80  61  51 E9        30.16F
HOLDREGE       SUNNY     79  57  47 E9G16     30.15F
HEBRON         SUNNY     80  53  39 E3        30.14F

...NEBRASKA PANHANDLE...

CITY           SKY/WX    TMP DP  RH WIND       PRES   REMARKS
CHADRON        PTSUNNY   77  57  50 NE14      30.19F
ALLIANCE       CLOUDY    79  53  40 E18G24    30.17F
SCOTTSBLUFF    PTSUNNY   78  61  55 NE20G25   30.17S
SIDNEY         CLOUDY    83  55  38 SE12G21   30.16F

...WESTERN AND NORTH CENTRAL NEBRASKA...

CITY           SKY/WX    TMP DP  RH WIND       PRES   REMARKS
VALENTINE      CLOUDY    75  52  44 N7        30.20F
AINSWORTH      CLOUDY    74  55  50 NE5       30.20F
ONEILL         CLOUDY    77  50  38 NW5       30.18F
BROKEN BOW     PTSUNNY   78  61  55 E6        30.18S
IMPERIAL       MOSUNNY   85  60  42 E15       30.12F
NORTH PLATTE   MOSUNNY   82  59  45 E14       30.14F
MCCOOK         PTSUNNY   85  58  39 E15       30.11F

...EASTERN NEBRASKA...

CITY           SKY/WX    TMP DP  RH WIND       PRES   REMARKS
NORFOLK        PTSUNNY   77  52  41 N8        30.16F
SO SIOUX CITY  PTSUNNY   76  54  46 N9        30.15F
TEKAMAH        PTSUNNY   77  54  44 N9        30.15F
ALBION         CLOUDY    74  55  50 CALM      30.18S
OMAHA EPPLEY   PTSUNNY   80  52  37 N8        30.14F
MILLARD        MOSUNNY   77  53  41 NW6       30.14F
LINCOLN        MOSUNNY   81  53  37 N13       30.15F
NEBRASKA CITY  MOSUNNY   78  55  44 N5        30.14F
BEATRICE       MOSUNNY   80  58  46 N9        30.13F
FALLS CITY     SUNNY     81  55  40 VRB5      30.12F

...NORTHERN KANSAS...

CITY           SKY/WX    TMP DP  RH WIND       PRES   REMARKS
GOODLAND       CLOUDY    84  59  42 SE14      30.11F
HILL CITY      MOSUNNY   89  56  32 SE12G22   30.09F
NORTON         PTCLDY    84  52  32 E12       30.10F
PHILLIPSBURG   SUNNY     88  54  31 E14       30.11F
SMITH CENTER   SUNNY     84  54  34 NE13      30.12F
HAYS           PTSUNNY   88  59  37 SE9       30.09F
RUSSELL        PTSUNNY   88  59  37 SE10      30.08F
CONCORDIA      MOSUNNY   80  58  46 NE9       30.13F
SALINA         MOSUNNY   84  58  40 E14       30.10F
TOPEKA         PTSUNNY   84  56  38 CALM      30.11F



USA.gov is the U.S. government's official web portal to all federal, state and local government web resources and services.